Hourly Data Report for October 05, 2015

All times are specified in Local Standard Time (LST). Add 1 hour to adjust for Daylight Saving Time where and when it is observed.

PETAWAWA AWOS 2
ONTARIO

45°57'00.000" N
77°19'00.000" W
130.10 m
6106396
71625
YWA

Download Data

Hourly Data (October 2015)
Hourly Data Report for October 5, 2015
Temp Definition
°C
Dew Point Temp Definition
°C
Rel Hum Definition
%
Wind Dir Definition
10's deg

Wind Spd Definition
km/h
Visibility Definition
km
Stn Press Definition
kPa
Hmdx Definition


Wind Chill Definition


Weather Definition


TIME
00:00 11.8 5.7 66   0 14.5 100.95     LegendNANA
01:00 10.6 8.1 84 25 6 14.5 100.94     LegendNANA
02:00 10.2 8.1 87 26 4 14.5 100.91     LegendNANA
03:00 11.4 5.6 68 14 6 14.5 100.90     LegendNANA
04:00 11.3 5.4 67   0 14.5 100.91     LegendNANA
05:00 10.1 7.9 86   0 14.5 100.91     LegendNANA
06:00 10.0 7.9 87   0 14.5 100.92     LegendNANA
07:00 10.0 8.4 90   0 14.5 100.93     LegendNANA
08:00 11.3 7.9 80   0 14.5 100.90     LegendNANA
09:00 12.0 6.1 67 3 4 14.5 100.89     LegendNANA
10:00 12.8 5.5 61   0 14.5 100.88     LegendNANA
11:00 13.2 6.1 62 2 6 14.5 100.83     LegendNANA
12:00 13.6 6.8 63 8 4 14.5 100.80     LegendNANA
13:00 14.0 7.2 64   0 14.5 100.74     LegendNANA
14:00 14.8 8.5 66 33 7 14.5 100.68     LegendNANA
15:00 14.2 7.8 65 32 6 14.5 100.64     LegendNANA
16:00 13.9 8.2 68 34 4 14.5 100.61     LegendNANA
17:00 13.4 8.6 73 34 6 14.5 100.57     LegendNANA
18:00 12.8 9.1 78 36 11 14.5 100.60     LegendNANA
19:00 12.3 9.1 81 36 9 14.5 100.63     LegendNANA
20:00 12.4 9.0 80 36 4 14.5 100.60     LegendNANA
21:00 12.0 8.9 81 35 4 14.5 100.58     LegendNANA
22:00 11.6 9.1 85   0 14.5 100.54     LegendNANA
23:00 11.4 9.0 85   0 14.5 100.51     LegendNANA

Notes on Data Quality.

Legend

  • E = Estimated
  • M = Missing
  • NA = Not Available
  • ‡ = Partner data that is not subject to review by the National Climate Archives
Date modified: